Location: Baumgarten
(49.0970°N, 12.7493°E)
Time: 19:08:49
(UTC+00:00)

Cosmos 2219 Rocket - Pass Details

Date: 05 July 2020
Orbit: 827 x 848 km, 71.0° (Epoch: 11 August)

Event Time Altitude Azimuth Distance (km) Brightness Sun altitude
Exits shadow 20:30:23 - 188° (S) 3,301 4.9 -9.5°
Reaches altitude 10° 20:32:44 10° 183° (S) 2,425 4.1 -9.8°
Maximum altitude 20:38:03 49° 110° (ESE) 1,068 2.4 -10.3°
Drops below altitude 10° 20:43:25 10° 37° (NE) 2,451 4.8 -10.8°
Sets 20:45:56 0° 32° (NNE) 3,392 5.7 -11.0°
